Location: Asbacherhof
(48.8543°N, 10.7903°E)
Time: 22:51:02
(UTC+00:00)

Cosmos 2219 Rocket - Pass Details

Date: 26 May 2022
Orbit: 827 x 847 km, 71.0° (Epoch: 29 June)

Event Time Altitude Azimuth Distance (km) Brightness Sun altitude
Exits shadow 00:43:14 10° 257° (WSW) 2,442 4.3 -17.3°
Reaches altitude 10° 00:43:16 10° 257° (WSW) 2,432 4.3 -17.3°
Maximum altitude 00:47:57 27° 315° (NW) 1,549 3.8 -17.0°
Drops below altitude 10° 00:52:41 10° 12° (NNE) 2,448 5.9 -16.7°
Sets 00:55:31 0° 25° (NNE) 3,388 7.2 -16.5°
